TimeCST,TemperatureF,Dew PointF,Humidity,Sea Level PressureIn,VisibilityMPH,Wind Direction,Wind SpeedMPH,Gust SpeedMPH,PrecipitationIn,Events,Conditions,WindDirDegrees,DateUTC
12:33 AM,32.0,30.2,93,29.65,3.0,NW,18.4,28.8,N/A,,Overcast,320,2012-11-11 06:33:00
12:53 AM,30.2,30.2,100,29.66,7.0,NW,19.6,26.5,N/A,,Overcast,310,2012-11-11 06:53:00
1:13 AM,30.2,28.4,93,29.66,10.0,WNW,19.6,29.9,N/A,,Overcast,300,2012-11-11 07:13:00
1:33 AM,30.2,28.4,93,29.66,10.0,NW,18.4,25.3,N/A,,Overcast,320,2012-11-11 07:33:00
1:54 AM,28.4,26.6,93,29.67,10.0,NW,16.1,28.8,N/A,,Overcast,320,2012-11-11 07:54:00
2:13 AM,28.4,26.6,93,29.67,10.0,NW,19.6,28.8,N/A,,Overcast,320,2012-11-11 08:13:00
2:33 AM,28.4,26.6,93,29.69,10.0,NW,16.1,23.0,N/A,,Overcast,310,2012-11-11 08:33:00
2:54 AM,28.4,24.8,86,29.69,10.0,NW,19.6,24.2,N/A,,Overcast,320,2012-11-11 08:54:00
3:13 AM,28.4,24.8,86,29.71,10.0,NW,15.0,24.2,N/A,,Overcast,320,2012-11-11 09:13:00
3:33 AM,26.6,23.0,86,29.74,10.0,NW,17.3,27.6,N/A,,Overcast,310,2012-11-11 09:33:00
3:53 AM,26.6,21.2,80,29.75,10.0,NW,18.4,26.5,N/A,,Overcast,310,2012-11-11 09:53:00
4:13 AM,24.8,21.2,86,29.74,10.0,NW,20.7,26.5,N/A,,Overcast,320,2012-11-11 10:13:00
4:33 AM,24.8,21.2,86,29.75,10.0,NW,21.9,29.9,N/A,,Overcast,310,2012-11-11 10:33:00
4:54 AM,24.8,21.2,86,29.76,10.0,NW,19.6,32.2,N/A,,Overcast,320,2012-11-11 10:54:00
5:13 AM,24.8,21.2,86,29.76,10.0,NW,20.7,27.6,N/A,,Overcast,310,2012-11-11 11:13:00
5:33 AM,23.0,19.4,86,29.77,10.0,NW,21.9,29.9,N/A,,Overcast,310,2012-11-11 11:33:00
5:53 AM,23.0,19.4,86,29.79,10.0,NW,20.7,26.5,N/A,,Overcast,310,2012-11-11 11:53:00
6:13 AM,23.0,17.6,80,29.79,10.0,NW,18.4,25.3,N/A,,Overcast,320,2012-11-11 12:13:00
6:33 AM,21.2,17.6,86,29.79,10.0,NW,17.3,24.2,N/A,,Overcast,320,2012-11-11 12:33:00
6:53 AM,21.2,17.6,86,29.79,10.0,NW,19.6,27.6,N/A,,Overcast,320,2012-11-11 12:53:00
7:33 AM,21.2,15.8,80,29.83,10.0,NW,21.9,26.5,N/A,,Overcast,310,2012-11-11 13:33:00
8:13 AM,21.2,15.8,80,29.83,10.0,NW,18.4,24.2,N/A,,Overcast,320,2012-11-11 14:13:00
8:33 AM,19.4,14.0,80,29.84,10.0,NW,17.3,21.9,N/A,,Overcast,310,2012-11-11 14:33:00
8:53 AM,19.4,14.0,80,29.85,10.0,NW,17.3,21.9,N/A,,Overcast,320,2012-11-11 14:53:00
9:13 AM,19.4,14.0,80,29.84,10.0,NW,18.4,23.0,N/A,,Mostly Cloudy,310,2012-11-11 15:13:00
9:53 AM,19.4,12.2,74,29.87,10.0,NW,13.8,17.3,N/A,,Scattered Clouds,310,2012-11-11 15:53:00
10:13 AM,19.4,12.2,74,29.86,10.0,NW,19.6,25.3,N/A,,Scattered Clouds,310,2012-11-11 16:13:00
10:33 AM,19.4,12.2,74,29.88,10.0,NW,19.6,-,N/A,,Mostly Cloudy,310,2012-11-11 16:33:00
10:53 AM,21.2,12.2,68,29.86,10.0,NW,19.6,26.5,N/A,,Scattered Clouds,320,2012-11-11 16:53:00
11:13 AM,21.2,12.2,68,29.88,10.0,NW,16.1,24.2,N/A,,Scattered Clouds,320,2012-11-11 17:13:00
11:33 AM,21.2,12.2,68,29.88,10.0,NW,13.8,23.0,N/A,,Scattered Clouds,310,2012-11-11 17:33:00
11:53 AM,21.2,12.2,68,29.87,10.0,WNW,15.0,19.6,N/A,,Mostly Cloudy,290,2012-11-11 17:53:00
12:13 PM,21.2,12.2,68,29.87,10.0,WNW,16.1,24.2,N/A,,Mostly Cloudy,300,2012-11-11 18:13:00
12:33 PM,21.2,12.2,68,29.86,10.0,NW,19.6,26.5,N/A,,Scattered Clouds,310,2012-11-11 18:33:00
12:53 PM,21.2,12.2,68,29.86,10.0,NW,19.6,29.9,N/A,,Mostly Cloudy,310,2012-11-11 18:53:00
1:13 PM,23.0,12.2,63,29.85,10.0,WNW,24.2,32.2,N/A,,Scattered Clouds,300,2012-11-11 19:13:00
1:33 PM,21.2,12.2,68,29.85,10.0,WNW,21.9,28.8,N/A,,Scattered Clouds,300,2012-11-11 19:33:00
1:53 PM,23.0,12.2,63,29.86,10.0,WNW,24.2,29.9,N/A,,Scattered Clouds,300,2012-11-11 19:53:00
2:13 PM,23.0,12.2,63,29.86,10.0,WNW,18.4,26.5,N/A,,Scattered Clouds,300,2012-11-11 20:13:00
2:33 PM,23.0,12.2,63,29.87,10.0,WNW,21.9,28.8,N/A,,Mostly Cloudy,300,2012-11-11 20:33:00
2:53 PM,21.2,12.2,68,29.87,10.0,WNW,17.3,26.5,N/A,,Mostly Cloudy,300,2012-11-11 20:53:00
3:13 PM,21.2,12.2,68,29.88,10.0,WNW,23.0,29.9,N/A,,Mostly Cloudy,290,2012-11-11 21:13:00
3:33 PM,21.2,12.2,68,29.88,10.0,WNW,19.6,26.5,N/A,,Scattered Clouds,300,2012-11-11 21:33:00
3:53 PM,21.2,12.2,68,29.89,10.0,WNW,25.3,29.9,N/A,,Scattered Clouds,300,2012-11-11 21:53:00
4:14 PM,21.2,12.2,68,29.90,10.0,NW,19.6,26.5,N/A,,Scattered Clouds,310,2012-11-11 22:14:00
4:33 PM,21.2,10.4,63,29.90,10.0,WNW,21.9,31.1,N/A,,Scattered Clouds,290,2012-11-11 22:33:00
4:53 PM,19.4,10.4,68,29.91,10.0,WNW,21.9,29.9,N/A,,Clear,290,2012-11-11 22:53:00
5:13 PM,19.4,10.4,68,29.92,10.0,WNW,15.0,26.5,N/A,,Clear,300,2012-11-11 23:13:00
5:33 PM,19.4,10.4,68,29.93,10.0,WNW,20.7,32.2,N/A,,Scattered Clouds,290,2012-11-11 23:33:00
5:53 PM,19.4,10.4,68,29.95,10.0,WNW,18.4,29.9,N/A,,Overcast,290,2012-11-11 23:53:00
6:13 PM,19.4,10.4,68,29.95,10.0,WNW,18.4,-,N/A,,Overcast,290,2012-11-12 00:13:00
6:33 PM,19.4,10.4,68,29.95,10.0,WNW,16.1,21.9,N/A,,Overcast,290,2012-11-12 00:33:00
6:53 PM,17.6,10.4,73,29.96,10.0,WNW,15.0,-,N/A,,Overcast,290,2012-11-12 00:53:00
7:13 PM,17.6,10.4,73,29.96,10.0,WNW,16.1,23.0,N/A,,Overcast,290,2012-11-12 01:13:00
7:33 PM,19.4,10.4,68,29.96,10.0,WNW,21.9,-,N/A,,Overcast,290,2012-11-12 01:33:00
7:53 PM,19.4,10.4,68,29.96,10.0,WNW,18.4,25.3,N/A,,Overcast,290,2012-11-12 01:53:00
8:13 PM,19.4,12.2,74,29.96,10.0,WNW,18.4,21.9,N/A,Snow,Light Snow,290,2012-11-12 02:13:00
8:33 PM,19.4,12.2,74,29.96,10.0,West,17.3,25.3,N/A,Snow,Light Snow,280,2012-11-12 02:33:00
8:53 PM,19.4,12.2,74,29.96,10.0,WNW,17.3,26.5,N/A,Snow,Light Snow,290,2012-11-12 02:53:00
9:13 PM,19.4,12.2,74,29.97,10.0,WNW,19.6,25.3,N/A,Snow,Light Snow,290,2012-11-12 03:13:00
9:33 PM,19.4,12.2,74,29.97,10.0,WNW,23.0,29.9,N/A,Snow,Light Snow,300,2012-11-12 03:33:00
9:53 PM,19.4,10.4,68,29.97,10.0,WNW,16.1,28.8,N/A,Snow,Light Snow,300,2012-11-12 03:53:00
10:13 PM,19.4,10.4,68,29.97,10.0,NW,20.7,27.6,N/A,Snow,Light Snow,310,2012-11-12 04:13:00
10:33 PM,19.4,10.4,68,29.97,10.0,WNW,20.7,29.9,N/A,,Overcast,300,2012-11-12 04:33:00
10:53 PM,19.4,10.4,68,29.97,10.0,WNW,20.7,28.8,N/A,Snow,Light Snow,290,2012-11-12 04:53:00
11:13 PM,19.4,10.4,68,29.97,10.0,WNW,13.8,-,N/A,,Overcast,290,2012-11-12 05:13:00
11:33 PM,19.4,12.2,74,29.97,10.0,WNW,18.4,24.2,N/A,Snow,Light Snow,290,2012-11-12 05:33:00
11:53 PM,19.4,12.2,74,29.98,10.0,WNW,18.4,-,N/A,Snow,Light Snow,290,2012-11-12 05:53:00